Wakkanai Airport, Japan

6:22 PM JST on September 25, 2016 (GMT +0900)
Wakkanai

Weather History for RJCW - January, 2014

Change the Weather History Date:

Sunday, January 19, 2014

  Actual Average Record
Temperature  
Mean Temperature 14 °F -  
Max Temperature 21 °F 23 °F 37 °F (1999)
Min Temperature 3 °F 16 °F 0 °F (2003)
Degree Days  
Heating Degree Days 50    
Moisture  
Dew Point 4 °F    
Average Humidity 56    
Maximum Humidity 68    
Minimum Humidity 46    
Precipitation  
Precipitation 0.00 in - - ()
Sea Level Pressure  
Sea Level Pressure 30.06 in    
Wind  
Wind Speed 8 mph ()    
Max Wind Speed 15 mph    
Max Gust Speed -    
Visibility 3.4 miles    
Events Snow    
Averages and records for this station are not official NWS values.
T = Trace of Precipitation, MM = Missing Value Source: Averaged Metar Reports

Daily Weather History Graph

Daily Weather History Graph

Search for Another Location

Airport or City:

Trip Planner

Search our weather history database for the weather conditions in past years. The results will help you decide how hot, cold, wet, or windy it might be!

Date:

Astronomy

Jan. 19, 2014 Rise Set
Actual Time 7:06 AM JST 4:20 PM JST
Civil Twilight 6:33 AM JST 4:53 PM JST
Nautical Twilight 5:57 AM JST 5:29 PM JST
Astronomical Twilight 5:22 AM JST 6:05 PM JST
Moon 7:33 PM JST (1/19) 8:07 AM JST (1/19)
Length of Visible Light 10h 19m
Length of Day
9h 14m
Waning Gibbous, 92% of the Moon is Illuminated
Jan 19
Waning Gibbous
Jan 24
Last Quarter
Jan 31
New
Feb 7
First Quarter
Feb 15
Full

Hourly Weather History & Observations

Time (JST) Temp. Windchill Dew Point Humidity Pressure Visibility Wind Dir Wind Speed Gust Speed Precip Events Conditions
8:30 AM 19.4 °F 7.9 °F 5.0 °F 54% 30.06 in 3.7 mi NNE 10.4 mph - N/A Snow Light Snow Showers
9:00 AM 19.4 °F 8.6 °F 6.8 °F 58% 30.06 in - NNE 9.2 mph - N/A Snow Light Snow Showers
9:11 AM 19.4 °F 9.5 °F 8.6 °F 63% 30.06 in - North 8.1 mph - N/A Snow Light Snow Showers
9:14 AM 19.4 °F 9.5 °F 6.8 °F 58% 30.06 in 0.9 mi North 8.1 mph - N/A Snow Light Snow Showers
9:17 AM 19.4 °F 9.5 °F 6.8 °F 58% 30.06 in 0.4 mi North 8.1 mph - N/A Snow Snow Showers
9:24 AM 17.6 °F 9.3 °F 8.6 °F 68% 30.06 in 1.0 mi NNW 5.8 mph - N/A Snow Light Snow Showers
9:32 AM 17.6 °F 12.3 °F 8.6 °F 68% 30.06 in 1.5 mi NW 3.5 mph - N/A Snow Light Snow Showers
10:00 AM 19.4 °F 6.6 °F 6.8 °F 58% 30.06 in 0.7 mi NNE 12.7 mph - N/A Snow Light Snow Showers
10:06 AM 19.4 °F 7.9 °F 6.8 °F 58% 30.06 in 1.0 mi North 10.4 mph - N/A Snow Light Snow Showers
10:12 AM 19.4 °F 7.9 °F 6.8 °F 58% 30.06 in 0.9 mi NNE 10.4 mph - N/A Snow Light Snow Showers
10:21 AM 19.4 °F 6.6 °F 6.8 °F 58% 30.06 in 0.5 mi North 12.7 mph - N/A Snow Snow Showers
10:25 AM 19.4 °F 7.2 °F 6.8 °F 58% 30.06 in 1.5 mi North 11.5 mph - N/A Snow Light Snow Showers
10:28 AM 19.4 °F 7.2 °F 6.8 °F 58% 30.06 in 3.1 mi North 11.5 mph - N/A Snow Light Snow Showers
11:00 AM 19.4 °F 6.6 °F 5.0 °F 54% 30.04 in 6.2 mi North 12.7 mph - N/A Snow Light Snow Showers
12:00 PM 21.2 °F 10.9 °F 6.8 °F 54% 30.04 in 6.2 mi North 9.2 mph - N/A   Scattered Clouds
1:00 PM 21.2 °F 7.8 °F 3.2 °F 46% 30.04 in 6.2 mi North 15.0 mph - N/A   Partly Cloudy
2:00 PM 21.2 °F 8.9 °F 3.2 °F 46% 30.04 in 6.2 mi North 12.7 mph - N/A   Partly Cloudy
3:00 PM 15.8 °F 3.4 °F -0.4 °F 49% 30.06 in 6.2 mi ENE 10.4 mph - N/A   Partly Cloudy
4:00 PM 14.0 °F 3.9 °F -2.2 °F 49% 30.06 in 6.2 mi ENE 6.9 mph - N/A   Partly Cloudy
5:00 PM 8.6 °F 0.1 °F -5.8 °F 52% 30.06 in 6.2 mi ESE 4.6 mph - N/A   Partly Cloudy
6:00 PM 3.2 °F -7.8 °F -11.2 °F 51% 30.09 in 6.2 mi ESE 5.8 mph - N/A   Partly Cloudy